Year,Month,Day,Hour,Minute,Value (Times are PST for temperature in C)
2007,04,23,00,00,5.90
2007,04,23,00,01,5.90
2007,04,23,00,02,5.90
2007,04,23,00,03,5.80
2007,04,23,00,04,5.80
2007,04,23,00,05,5.80
2007,04,23,00,06,5.80
2007,04,23,00,07,5.80
2007,04,23,00,08,5.80
2007,04,23,00,09,5.80
2007,04,23,00,10,5.70
2007,04,23,00,11,5.70
2007,04,23,00,12,5.70
2007,04,23,00,13,5.70
2007,04,23,00,14,5.70
2007,04,23,00,15,5.70
2007,04,23,00,16,5.70
2007,04,23,00,17,5.70
2007,04,23,00,18,5.70
2007,04,23,00,19,5.70
2007,04,23,00,20,5.70
2007,04,23,00,21,5.70
2007,04,23,00,22,5.70
2007,04,23,00,23,5.70
2007,04,23,00,24,5.70
2007,04,23,00,25,5.80
2007,04,23,00,26,5.80
2007,04,23,00,27,5.80
2007,04,23,00,28,5.80
2007,04,23,00,29,5.80
2007,04,23,00,30,5.90
2007,04,23,00,31,5.90
2007,04,23,00,32,5.90
2007,04,23,00,33,5.90
2007,04,23,00,34,5.90
2007,04,23,00,35,5.90
2007,04,23,00,36,5.90
2007,04,23,00,37,5.90
2007,04,23,00,38,5.90
2007,04,23,00,39,5.90
2007,04,23,00,40,5.90
2007,04,23,00,41,5.90
2007,04,23,00,42,5.90
2007,04,23,00,43,5.90
2007,04,23,00,44,5.90
2007,04,23,00,45,5.90
2007,04,23,00,46,5.90
2007,04,23,00,47,5.90
2007,04,23,00,48,5.90
2007,04,23,00,49,5.90
2007,04,23,00,50,5.90
2007,04,23,00,51,5.90
2007,04,23,00,52,5.90
2007,04,23,00,53,5.90
2007,04,23,00,54,5.90
2007,04,23,00,55,6.00
2007,04,23,00,56,6.00
2007,04,23,00,57,6.00
2007,04,23,00,58,6.00
2007,04,23,00,59,6.00
2007,04,23,01,00,6.00
2007,04,23,01,01,6.00
2007,04,23,01,02,6.00
2007,04,23,01,03,6.10
2007,04,23,01,04,6.10
2007,04,23,01,05,6.10
2007,04,23,01,06,6.10
2007,04,23,01,07,6.10
2007,04,23,01,08,6.20
2007,04,23,01,09,6.20
2007,04,23,01,10,6.20
2007,04,23,01,11,6.20
2007,04,23,01,12,6.20
2007,04,23,01,13,6.20
2007,04,23,01,14,6.20
2007,04,23,01,15,6.20
2007,04,23,01,16,6.20
2007,04,23,01,17,6.20
2007,04,23,01,18,6.20
2007,04,23,01,19,6.20
2007,04,23,01,20,6.30
2007,04,23,01,21,6.30
2007,04,23,01,22,6.30
2007,04,23,01,23,6.30
2007,04,23,01,24,6.40
2007,04,23,01,25,6.40
2007,04,23,01,26,6.40
2007,04,23,01,27,6.40
2007,04,23,01,28,6.40
2007,04,23,01,29,6.40
2007,04,23,01,30,6.40
2007,04,23,01,31,6.40
2007,04,23,01,32,6.40
2007,04,23,01,33,6.40
2007,04,23,01,34,6.40
2007,04,23,01,35,6.40
2007,04,23,01,36,6.40
2007,04,23,01,37,6.40
2007,04,23,01,38,6.40
2007,04,23,01,39,6.40
2007,04,23,01,40,6.40
2007,04,23,01,41,6.40
2007,04,23,01,42,6.40
2007,04,23,01,43,6.50
2007,04,23,01,44,6.50
2007,04,23,01,45,6.50
2007,04,23,01,46,6.50
2007,04,23,01,47,6.50
2007,04,23,01,48,6.50
2007,04,23,01,49,6.50
2007,04,23,01,50,6.50
2007,04,23,01,51,6.50
2007,04,23,01,52,6.50
2007,04,23,01,53,6.50
2007,04,23,01,54,6.50
2007,04,23,01,55,6.40
2007,04,23,01,56,6.40
2007,04,23,01,57,6.40
2007,04,23,01,58,6.30
2007,04,23,01,59,6.30
2007,04,23,02,00,6.20
2007,04,23,02,01,6.10
2007,04,23,02,02,6.00
2007,04,23,02,03,5.90
2007,04,23,02,04,5.80
2007,04,23,02,05,5.70
2007,04,23,02,06,5.70
2007,04,23,02,07,5.70
2007,04,23,02,08,5.60
2007,04,23,02,09,5.70
2007,04,23,02,10,5.70
2007,04,23,02,11,5.70
2007,04,23,02,12,5.70
2007,04,23,02,13,5.80
2007,04,23,02,14,5.80
2007,04,23,02,15,5.80
2007,04,23,02,16,5.80
2007,04,23,02,17,5.80
2007,04,23,02,18,5.80
2007,04,23,02,19,5.80
2007,04,23,02,20,5.70
2007,04,23,02,21,5.70
2007,04,23,02,22,5.70
2007,04,23,02,23,5.60
2007,04,23,02,24,5.60
2007,04,23,02,25,5.60
2007,04,23,02,26,5.50
2007,04,23,02,27,5.50
2007,04,23,02,28,5.50
2007,04,23,02,29,5.40
2007,04,23,02,30,5.40
2007,04,23,02,31,5.40
2007,04,23,02,32,5.40
2007,04,23,02,33,5.40
2007,04,23,02,34,5.40
2007,04,23,02,35,5.40
2007,04,23,02,36,5.40
2007,04,23,02,37,5.40
2007,04,23,02,38,5.40
2007,04,23,02,39,5.40
2007,04,23,02,40,5.40
2007,04,23,02,41,5.40
2007,04,23,02,42,5.50
2007,04,23,02,43,5.40
2007,04,23,02,44,5.40
2007,04,23,02,45,5.40
2007,04,23,02,46,5.30
2007,04,23,02,47,5.30
2007,04,23,02,48,5.20
2007,04,23,02,49,5.20
2007,04,23,02,50,5.20
2007,04,23,02,51,5.10
2007,04,23,02,52,5.10
2007,04,23,02,53,5.10
2007,04,23,02,54,5.00
2007,04,23,02,55,5.00
2007,04,23,02,56,5.00
2007,04,23,02,57,5.00
2007,04,23,02,58,5.00
2007,04,23,02,59,5.00
2007,04,23,03,00,5.00
2007,04,23,03,01,5.00
2007,04,23,03,02,5.00
2007,04,23,03,03,5.10
2007,04,23,03,04,5.10
2007,04,23,03,05,5.10
2007,04,23,03,06,5.10
2007,04,23,03,07,5.10
2007,04,23,03,08,5.10
2007,04,23,03,09,5.10
2007,04,23,03,10,5.10
2007,04,23,03,11,5.10
2007,04,23,03,12,5.10
2007,04,23,03,13,5.00
2007,04,23,03,14,5.00
2007,04,23,03,15,4.90
2007,04,23,03,16,4.80
2007,04,23,03,17,4.80
2007,04,23,03,18,4.70
2007,04,23,03,19,4.70
2007,04,23,03,20,4.70
2007,04,23,03,21,4.60
2007,04,23,03,22,4.60
2007,04,23,03,23,4.60
2007,04,23,03,24,4.60
2007,04,23,03,25,4.60
2007,04,23,03,26,4.50
2007,04,23,03,27,4.50
2007,04,23,03,28,4.40
2007,04,23,03,29,4.40
2007,04,23,03,30,4.40
2007,04,23,03,31,4.40
2007,04,23,03,32,4.40
2007,04,23,03,33,4.40
2007,04,23,03,34,4.40
2007,04,23,03,35,4.40
2007,04,23,03,36,4.50
2007,04,23,03,37,4.40
2007,04,23,03,38,4.40
2007,04,23,03,39,4.50
2007,04,23,03,40,4.50
2007,04,23,03,41,4.50
2007,04,23,03,42,4.50
2007,04,23,03,43,4.50
2007,04,23,03,44,4.50
2007,04,23,03,45,4.50
2007,04,23,03,46,4.50
2007,04,23,03,47,4.50
2007,04,23,03,48,4.60
2007,04,23,03,49,4.50
2007,04,23,03,50,4.50
2007,04,23,03,51,4.50
2007,04,23,03,52,4.50
2007,04,23,03,53,4.50
2007,04,23,03,54,4.50
2007,04,23,03,55,4.50
2007,04,23,03,56,4.40
2007,04,23,03,57,4.40
2007,04,23,03,58,4.40
2007,04,23,03,59,4.40
2007,04,23,04,00,4.40
2007,04,23,04,01,4.40
2007,04,23,04,02,4.40
2007,04,23,04,03,4.50
2007,04,23,04,04,4.50
2007,04,23,04,05,4.50
2007,04,23,04,06,4.50
2007,04,23,04,07,4.50
2007,04,23,04,08,4.40
2007,04,23,04,09,4.40
2007,04,23,04,10,4.40
2007,04,23,04,11,4.40
2007,04,23,04,12,4.40
2007,04,23,04,13,4.50
2007,04,23,04,14,4.50
2007,04,23,04,15,4.50
2007,04,23,04,16,4.60
2007,04,23,04,17,4.60
2007,04,23,04,18,4.60
2007,04,23,04,19,4.60
2007,04,23,04,20,4.60
2007,04,23,04,21,4.50
2007,04,23,04,22,4.50
2007,04,23,04,23,4.50
2007,04,23,04,24,4.50
2007,04,23,04,25,4.50
2007,04,23,04,26,4.60
2007,04,23,04,27,4.60
2007,04,23,04,28,4.70
2007,04,23,04,29,4.70
2007,04,23,04,30,4.70
2007,04,23,04,31,4.70
2007,04,23,04,32,4.70
2007,04,23,04,33,4.80
2007,04,23,04,34,4.80
2007,04,23,04,35,4.80
2007,04,23,04,36,4.80
2007,04,23,04,37,4.80
2007,04,23,04,38,4.80
2007,04,23,04,39,4.80
2007,04,23,04,40,4.80
2007,04,23,04,41,4.80
2007,04,23,04,42,4.80
2007,04,23,04,43,4.80
2007,04,23,04,44,4.80
2007,04,23,04,45,4.80
2007,04,23,04,46,4.70
2007,04,23,04,47,4.70
2007,04,23,04,48,4.70
2007,04,23,04,49,4.80
2007,04,23,04,50,4.80
2007,04,23,04,51,4.90
2007,04,23,04,52,4.90
2007,04,23,04,53,4.90
2007,04,23,04,54,5.00
2007,04,23,04,55,5.00
2007,04,23,04,56,5.10
2007,04,23,04,57,5.10
2007,04,23,04,58,5.10
2007,04,23,04,59,5.10
2007,04,23,05,00,5.10
2007,04,23,05,01,5.10
2007,04,23,05,02,5.10
2007,04,23,05,03,5.10
2007,04,23,05,04,5.10
2007,04,23,05,05,5.10
2007,04,23,05,06,5.20
2007,04,23,05,07,5.20
2007,04,23,05,08,5.30
2007,04,23,05,09,5.30
2007,04,23,05,10,5.30
2007,04,23,05,11,5.40
2007,04,23,05,12,5.40
2007,04,23,05,13,5.40
2007,04,23,05,14,5.40
2007,04,23,05,15,5.50
2007,04,23,05,16,5.50
2007,04,23,05,17,5.50
2007,04,23,05,18,5.60
2007,04,23,05,19,5.60
2007,04,23,05,20,5.60
2007,04,23,05,21,5.60
2007,04,23,05,22,5.60
2007,04,23,05,23,5.60
2007,04,23,05,24,5.60
2007,04,23,05,25,5.70
2007,04,23,05,26,5.70
2007,04,23,05,27,5.70
2007,04,23,05,28,5.70
2007,04,23,05,29,5.70
2007,04,23,05,30,5.70
2007,04,23,05,31,5.80
2007,04,23,05,32,5.80
2007,04,23,05,33,5.90
2007,04,23,05,34,5.90
2007,04,23,05,35,6.00
2007,04,23,05,36,6.00
2007,04,23,05,37,5.90
2007,04,23,05,38,5.90
2007,04,23,05,39,5.90
2007,04,23,05,40,5.80
2007,04,23,05,41,5.80
2007,04,23,05,42,5.70
2007,04,23,05,43,5.70
2007,04,23,05,44,5.60
2007,04,23,05,45,5.60
2007,04,23,05,46,5.50
2007,04,23,05,47,5.50
2007,04,23,05,48,5.50
2007,04,23,05,49,5.40
2007,04,23,05,50,5.30
2007,04,23,05,51,5.30
2007,04,23,05,52,5.20
2007,04,23,05,53,5.20
2007,04,23,05,54,5.10
2007,04,23,05,55,5.10
2007,04,23,05,56,5.10
2007,04,23,05,57,5.10
2007,04,23,05,58,5.00
2007,04,23,05,59,5.00
2007,04,23,06,00,5.00
2007,04,23,06,01,5.00
2007,04,23,06,02,4.90
2007,04,23,06,03,4.90
2007,04,23,06,04,4.90
2007,04,23,06,05,4.90
2007,04,23,06,06,4.90
2007,04,23,06,07,4.90
2007,04,23,06,08,4.90
2007,04,23,06,09,4.80
2007,04,23,06,10,4.80
2007,04,23,06,11,4.80
2007,04,23,06,12,4.80
2007,04,23,06,13,4.80
2007,04,23,06,14,4.70
2007,04,23,06,15,4.70
2007,04,23,06,16,4.70
2007,04,23,06,17,4.70
2007,04,23,06,18,4.60
2007,04,23,06,19,4.60
2007,04,23,06,20,4.60
2007,04,23,06,21,4.60
2007,04,23,06,22,4.60
2007,04,23,06,23,4.60
2007,04,23,06,24,4.60
2007,04,23,06,25,4.60
2007,04,23,06,26,4.60
2007,04,23,06,27,4.60
2007,04,23,06,28,4.60
2007,04,23,06,29,4.50
2007,04,23,06,30,4.50
2007,04,23,06,31,4.40
2007,04,23,06,32,4.40
2007,04,23,06,33,4.40
2007,04,23,06,34,4.30
2007,04,23,06,35,4.30
2007,04,23,06,36,4.30
2007,04,23,06,37,4.30
2007,04,23,06,38,4.30
2007,04,23,06,39,4.30
2007,04,23,06,40,4.30
2007,04,23,06,41,4.30
2007,04,23,06,42,4.40
2007,04,23,06,43,4.40
2007,04,23,06,44,4.50
2007,04,23,06,45,4.50
2007,04,23,06,46,4.50
2007,04,23,06,47,4.60
2007,04,23,06,48,4.60
2007,04,23,06,49,4.60
2007,04,23,06,50,4.70
2007,04,23,06,51,4.80
2007,04,23,06,52,4.80
2007,04,23,06,53,4.80
2007,04,23,06,54,4.80
2007,04,23,06,55,4.90
2007,04,23,06,56,4.90
2007,04,23,06,57,4.90
2007,04,23,06,58,4.90
2007,04,23,06,59,5.00
2007,04,23,07,00,5.00
2007,04,23,07,01,5.00
2007,04,23,07,02,5.10
2007,04,23,07,03,5.10
2007,04,23,07,04,5.10
2007,04,23,07,05,5.20
2007,04,23,07,06,5.20
2007,04,23,07,07,5.30
2007,04,23,07,08,5.40
2007,04,23,07,09,5.40
2007,04,23,07,10,5.50
2007,04,23,07,11,5.60
2007,04,23,07,12,5.60
2007,04,23,07,13,5.70
2007,04,23,07,14,5.80
2007,04,23,07,15,5.80
2007,04,23,07,16,5.90
2007,04,23,07,17,5.90
2007,04,23,07,18,6.00
2007,04,23,07,19,6.00
2007,04,23,07,20,6.10
2007,04,23,07,21,6.20
2007,04,23,07,22,6.20
2007,04,23,07,23,6.30
2007,04,23,07,24,6.40
2007,04,23,07,25,6.40
2007,04,23,07,26,6.40
2007,04,23,07,27,6.50
2007,04,23,07,28,6.50
2007,04,23,07,29,6.60
2007,04,23,07,30,6.70
2007,04,23,07,31,6.70
2007,04,23,07,32,6.80
2007,04,23,07,33,6.90
2007,04,23,07,34,7.00
2007,04,23,07,35,7.10
2007,04,23,07,36,7.20
2007,04,23,07,37,7.20
2007,04,23,07,38,7.20
2007,04,23,07,39,7.30
2007,04,23,07,40,7.40
2007,04,23,07,41,7.50
2007,04,23,07,42,7.60
2007,04,23,07,43,7.60
2007,04,23,07,44,7.70
2007,04,23,07,45,7.70
2007,04,23,07,46,7.70
2007,04,23,07,47,7.70
2007,04,23,07,48,7.70
2007,04,23,07,49,7.70
2007,04,23,07,50,7.70
2007,04,23,07,51,7.70
2007,04,23,07,52,7.70
2007,04,23,07,53,7.70
2007,04,23,07,54,7.80
2007,04,23,07,55,7.80
2007,04,23,07,56,7.90
2007,04,23,07,57,8.00
2007,04,23,07,58,8.10
2007,04,23,07,59,8.20
2007,04,23,08,00,8.30
2007,04,23,08,01,8.30
2007,04,23,08,02,8.40
2007,04,23,08,03,8.50
2007,04,23,08,04,8.60
2007,04,23,08,05,8.70
2007,04,23,08,06,8.70
2007,04,23,08,07,8.80
2007,04,23,08,08,8.80
2007,04,23,08,09,8.80
2007,04,23,08,10,8.90
2007,04,23,08,11,8.90
2007,04,23,08,12,8.90
2007,04,23,08,13,9.00
2007,04,23,08,14,9.00
2007,04,23,08,15,9.10
2007,04,23,08,16,9.20
2007,04,23,08,17,9.20
2007,04,23,08,18,9.30
2007,04,23,08,19,9.40
2007,04,23,08,20,9.40
2007,04,23,08,21,9.50
2007,04,23,08,22,9.60
2007,04,23,08,23,9.70
2007,04,23,08,24,9.70
2007,04,23,08,25,9.70
2007,04,23,08,26,9.80
2007,04,23,08,27,9.80
2007,04,23,08,28,9.80
2007,04,23,08,29,9.70
2007,04,23,08,30,9.70
2007,04,23,08,31,9.70
2007,04,23,08,32,9.70
2007,04,23,08,33,9.80
2007,04,23,08,34,9.80
2007,04,23,08,35,9.90
2007,04,23,08,36,9.90
2007,04,23,08,37,9.90
2007,04,23,08,38,9.90
2007,04,23,08,39,9.90
2007,04,23,08,40,9.90
2007,04,23,08,41,9.90
2007,04,23,08,42,9.80
2007,04,23,08,43,9.70
2007,04,23,08,44,9.60
2007,04,23,08,45,9.60
2007,04,23,08,46,9.60
2007,04,23,08,47,9.60
2007,04,23,08,48,9.60
2007,04,23,08,49,9.60
2007,04,23,08,50,9.70
2007,04,23,08,51,9.70
2007,04,23,08,52,9.70
2007,04,23,08,53,9.70
2007,04,23,08,54,9.80
2007,04,23,08,55,9.80
2007,04,23,08,56,9.90
2007,04,23,08,57,10.00
2007,04,23,08,58,10.10
2007,04,23,08,59,10.20
2007,04,23,09,00,10.30
2007,04,23,09,01,10.40
2007,04,23,09,02,10.50
2007,04,23,09,03,10.60
2007,04,23,09,04,10.70
2007,04,23,09,05,10.80
2007,04,23,09,06,10.70
2007,04,23,09,07,10.70
2007,04,23,09,08,10.60
2007,04,23,09,09,10.50
2007,04,23,09,10,10.40
2007,04,23,09,11,10.40
2007,04,23,09,12,10.40
2007,04,23,09,13,10.40
2007,04,23,09,14,10.40
2007,04,23,09,15,10.30
2007,04,23,09,16,10.30
2007,04,23,09,17,10.20
2007,04,23,09,18,10.20
2007,04,23,09,19,10.10
2007,04,23,09,20,10.00
2007,04,23,09,21,9.90
2007,04,23,09,22,9.90
2007,04,23,09,23,10.00
2007,04,23,09,24,9.90
2007,04,23,09,25,9.90
2007,04,23,09,26,10.00
2007,04,23,09,27,10.00
2007,04,23,09,28,10.00
2007,04,23,09,29,10.00
2007,04,23,09,30,10.10
2007,04,23,09,31,10.10
2007,04,23,09,32,10.10
2007,04,23,09,33,10.20
2007,04,23,09,34,10.20
2007,04,23,09,35,10.30
2007,04,23,09,36,10.30
2007,04,23,09,37,10.30
2007,04,23,09,38,10.30
2007,04,23,09,39,10.40
2007,04,23,09,40,10.50
2007,04,23,09,41,10.50
2007,04,23,09,42,10.60
2007,04,23,09,43,10.60
2007,04,23,09,44,10.60
2007,04,23,09,45,10.60
2007,04,23,09,46,10.60
2007,04,23,09,47,10.50
2007,04,23,09,48,10.50
2007,04,23,09,49,10.50
2007,04,23,09,50,10.60
2007,04,23,09,51,10.60
2007,04,23,09,52,10.70
2007,04,23,09,53,10.70
2007,04,23,09,54,10.70
2007,04,23,09,55,10.70
2007,04,23,09,56,10.80
2007,04,23,09,57,10.80
2007,04,23,09,58,10.70
2007,04,23,09,59,10.60
2007,04,23,10,00,10.50
2007,04,23,10,01,10.50
2007,04,23,10,02,10.40
2007,04,23,10,03,10.40
2007,04,23,10,04,10.40
2007,04,23,10,05,10.40
2007,04,23,10,06,10.30
2007,04,23,10,07,10.30
2007,04,23,10,08,10.30
2007,04,23,10,09,10.40
2007,04,23,10,10,10.40
2007,04,23,10,11,10.50
2007,04,23,10,12,10.70
2007,04,23,10,13,10.80
2007,04,23,10,14,10.80
2007,04,23,10,15,10.90
2007,04,23,10,16,11.00
2007,04,23,10,17,11.10
2007,04,23,10,18,11.20
2007,04,23,10,19,11.20
2007,04,23,10,20,11.30
2007,04,23,10,21,11.30
2007,04,23,10,22,11.30
2007,04,23,10,23,11.20
2007,04,23,10,24,11.10
2007,04,23,10,25,11.00
2007,04,23,10,26,10.90
2007,04,23,10,27,10.90
2007,04,23,10,28,10.90
2007,04,23,10,29,10.80
2007,04,23,10,30,10.70
2007,04,23,10,31,10.60
2007,04,23,10,32,10.70
2007,04,23,10,33,10.70
2007,04,23,10,34,10.70
2007,04,23,10,35,10.70
2007,04,23,10,36,10.60
2007,04,23,10,37,10.60
2007,04,23,10,38,10.70
2007,04,23,10,39,10.70
2007,04,23,10,40,10.70
2007,04,23,10,41,10.70
2007,04,23,10,42,10.80
2007,04,23,10,43,10.90
2007,04,23,10,44,11.00
2007,04,23,10,45,11.00
2007,04,23,10,46,11.10
2007,04,23,10,47,11.10
2007,04,23,10,48,11.10
2007,04,23,10,49,11.00
2007,04,23,10,50,11.10
2007,04,23,10,51,11.10
2007,04,23,10,52,11.10
2007,04,23,10,53,11.10
2007,04,23,10,54,11.20
2007,04,23,10,55,11.20
2007,04,23,10,56,11.30
2007,04,23,10,57,11.40
2007,04,23,10,58,11.50
2007,04,23,10,59,11.60
2007,04,23,11,00,11.80
2007,04,23,11,01,12.00
2007,04,23,11,02,12.30
2007,04,23,11,03,12.50
2007,04,23,11,04,12.70
2007,04,23,11,05,12.80
2007,04,23,11,06,13.00
2007,04,23,11,07,13.10
2007,04,23,11,08,13.10
2007,04,23,11,09,13.00
2007,04,23,11,10,13.00
2007,04,23,11,11,13.00
2007,04,23,11,12,13.00
2007,04,23,11,13,12.90
2007,04,23,11,14,12.90
2007,04,23,11,15,13.00
2007,04,23,11,16,13.10
2007,04,23,11,17,13.10
2007,04,23,11,18,13.10
2007,04,23,11,19,13.00
2007,04,23,11,20,13.00
2007,04,23,11,21,12.90
2007,04,23,11,22,12.90
2007,04,23,11,23,12.90
2007,04,23,11,24,12.80
2007,04,23,11,25,12.80
2007,04,23,11,26,12.80
2007,04,23,11,27,12.70
2007,04,23,11,28,12.60
2007,04,23,11,29,12.60
2007,04,23,11,30,12.70
2007,04,23,11,31,12.60
2007,04,23,11,32,12.60
2007,04,23,11,33,12.60
2007,04,23,11,34,12.50
2007,04,23,11,35,12.50
2007,04,23,11,36,12.50
2007,04,23,11,37,12.60
2007,04,23,11,38,12.70
2007,04,23,11,39,12.70
2007,04,23,11,40,12.60
2007,04,23,11,41,12.50
2007,04,23,11,42,12.60
2007,04,23,11,43,12.60
2007,04,23,11,44,12.70
2007,04,23,11,45,12.90
2007,04,23,11,46,13.00
2007,04,23,11,47,13.10
2007,04,23,11,48,13.20
2007,04,23,11,49,13.10
2007,04,23,11,50,13.10
2007,04,23,11,51,13.10
2007,04,23,11,52,13.00
2007,04,23,11,53,12.90
2007,04,23,11,54,12.90
2007,04,23,11,55,12.80
2007,04,23,11,56,12.80
2007,04,23,11,57,12.80
2007,04,23,11,58,12.70
2007,04,23,11,59,12.60
2007,04,23,12,00,12.60
2007,04,23,12,01,12.70
2007,04,23,12,02,12.80
2007,04,23,12,03,12.90
2007,04,23,12,04,12.90
2007,04,23,12,05,12.90
2007,04,23,12,06,13.00
2007,04,23,12,07,13.10
2007,04,23,12,08,13.10
2007,04,23,12,09,13.20
2007,04,23,12,10,13.40
2007,04,23,12,11,13.50
2007,04,23,12,12,13.50
2007,04,23,12,13,13.40
2007,04,23,12,14,13.40
2007,04,23,12,15,13.30
2007,04,23,12,16,13.20
2007,04,23,12,17,13.00
2007,04,23,12,18,12.90
2007,04,23,12,19,12.80
2007,04,23,12,20,12.80
2007,04,23,12,21,12.80
2007,04,23,12,22,12.80
2007,04,23,12,23,12.80
2007,04,23,12,24,12.80
2007,04,23,12,25,12.80
2007,04,23,12,26,12.70
2007,04,23,12,27,12.60
2007,04,23,12,28,12.50
2007,04,23,12,29,12.50
2007,04,23,12,30,12.40
2007,04,23,12,31,12.40
2007,04,23,12,32,12.40
2007,04,23,12,33,12.30
2007,04,23,12,34,12.30
2007,04,23,12,35,12.30
2007,04,23,12,36,12.20
2007,04,23,12,37,12.10
2007,04,23,12,38,12.10
2007,04,23,12,39,12.10
2007,04,23,12,40,12.10
2007,04,23,12,41,12.00
2007,04,23,12,42,12.00
2007,04,23,12,43,12.00
2007,04,23,12,44,12.00
2007,04,23,12,45,12.00
2007,04,23,12,46,12.10
2007,04,23,12,47,12.10
2007,04,23,12,48,12.20
2007,04,23,12,49,12.20
2007,04,23,12,50,12.20
2007,04,23,12,51,12.30
2007,04,23,12,52,12.30
2007,04,23,12,53,12.40
2007,04,23,12,54,12.40
2007,04,23,12,55,12.50
2007,04,23,12,56,12.50
2007,04,23,12,57,12.50
2007,04,23,12,58,12.70
2007,04,23,12,59,12.80
2007,04,23,13,00,13.00
2007,04,23,13,01,13.20
2007,04,23,13,02,13.30
2007,04,23,13,03,13.50
2007,04,23,13,04,13.60
2007,04,23,13,05,13.70
2007,04,23,13,06,13.90
2007,04,23,13,07,14.00
2007,04,23,13,08,14.00
2007,04,23,13,09,14.00
2007,04,23,13,10,13.90
2007,04,23,13,11,13.80
2007,04,23,13,12,13.60
2007,04,23,13,13,13.50
2007,04,23,13,14,13.40
2007,04,23,13,15,13.40
2007,04,23,13,16,13.40
2007,04,23,13,17,13.40
2007,04,23,13,18,13.40
2007,04,23,13,19,13.50
2007,04,23,13,20,13.60
2007,04,23,13,21,13.60
2007,04,23,13,22,13.70
2007,04,23,13,23,13.80
2007,04,23,13,24,13.80
2007,04,23,13,25,13.80
2007,04,23,13,26,13.80
2007,04,23,13,27,13.80
2007,04,23,13,28,13.70
2007,04,23,13,29,13.60
2007,04,23,13,30,13.40
2007,04,23,13,31,13.30
2007,04,23,13,32,13.30
2007,04,23,13,33,13.20
2007,04,23,13,34,13.10
2007,04,23,13,35,13.10
2007,04,23,13,36,13.00
2007,04,23,13,37,13.10
2007,04,23,13,38,13.10
2007,04,23,13,39,13.10
2007,04,23,13,40,13.20
2007,04,23,13,41,13.30
2007,04,23,13,42,13.40
2007,04,23,13,43,13.50
2007,04,23,13,44,13.50
2007,04,23,13,45,13.60
2007,04,23,13,46,13.60
2007,04,23,13,47,13.60
2007,04,23,13,48,13.70
2007,04,23,13,49,13.70
2007,04,23,13,50,13.80
2007,04,23,13,51,13.80
2007,04,23,13,52,13.80
2007,04,23,13,53,13.80
2007,04,23,13,54,13.70
2007,04,23,13,55,13.60
2007,04,23,13,56,13.60
2007,04,23,13,57,13.60
2007,04,23,13,58,13.60
2007,04,23,13,59,13.60
2007,04,23,14,00,13.60
2007,04,23,14,01,13.60
2007,04,23,14,02,13.60
2007,04,23,14,03,13.60
2007,04,23,14,04,13.50
2007,04,23,14,05,13.50
2007,04,23,14,06,13.40
2007,04,23,14,07,13.30
2007,04,23,14,08,13.30
2007,04,23,14,09,13.30
2007,04,23,14,10,13.30
2007,04,23,14,11,13.30
2007,04,23,14,12,13.30
2007,04,23,14,13,13.30
2007,04,23,14,14,13.20
2007,04,23,14,15,13.20
2007,04,23,14,16,13.10
2007,04,23,14,17,13.00
2007,04,23,14,18,12.90
2007,04,23,14,19,12.80
2007,04,23,14,20,12.80
2007,04,23,14,21,12.70
2007,04,23,14,22,12.60
2007,04,23,14,23,12.60
2007,04,23,14,24,12.50
2007,04,23,14,25,12.50
2007,04,23,14,26,12.50
2007,04,23,14,27,12.40
2007,04,23,14,28,12.40
2007,04,23,14,29,12.50
2007,04,23,14,30,12.50
2007,04,23,14,31,12.50
2007,04,23,14,32,12.50
2007,04,23,14,33,12.60
2007,04,23,14,34,12.60
2007,04,23,14,35,12.60
2007,04,23,14,36,12.70
2007,04,23,14,37,12.70
2007,04,23,14,38,12.70
2007,04,23,14,39,12.80
2007,04,23,14,40,12.80
2007,04,23,14,41,12.70
2007,04,23,14,42,12.70
2007,04,23,14,43,12.70
2007,04,23,14,44,12.70
2007,04,23,14,45,12.70
2007,04,23,14,46,12.70
2007,04,23,14,47,12.60
2007,04,23,14,48,12.60
2007,04,23,14,49,12.60
2007,04,23,14,50,12.60
2007,04,23,14,51,12.60
2007,04,23,14,52,12.60
2007,04,23,14,53,12.70
2007,04,23,14,54,12.70
2007,04,23,14,55,12.70
2007,04,23,14,56,12.70
2007,04,23,14,57,12.80
2007,04,23,14,58,12.80
2007,04,23,14,59,12.80
2007,04,23,15,00,12.80
2007,04,23,15,01,12.80
2007,04,23,15,02,12.80
2007,04,23,15,03,12.90
2007,04,23,15,04,12.90
2007,04,23,15,05,12.90
2007,04,23,15,06,12.90
2007,04,23,15,07,12.90
2007,04,23,15,08,12.90
2007,04,23,15,09,12.90
2007,04,23,15,10,12.90
2007,04,23,15,11,12.90
2007,04,23,15,12,12.90
2007,04,23,15,13,12.90
2007,04,23,15,14,12.90
2007,04,23,15,15,12.90
2007,04,23,15,16,12.90
2007,04,23,15,17,12.90
2007,04,23,15,18,12.90
2007,04,23,15,19,13.00
2007,04,23,15,20,13.00
2007,04,23,15,21,13.00
2007,04,23,15,22,13.00
2007,04,23,15,23,13.00
2007,04,23,15,24,13.10
2007,04,23,15,25,13.10
2007,04,23,15,26,13.10
2007,04,23,15,27,13.10
2007,04,23,15,28,13.10
2007,04,23,15,29,13.10
2007,04,23,15,30,13.20
2007,04,23,15,31,13.20
2007,04,23,15,32,13.30
2007,04,23,15,33,13.30
2007,04,23,15,34,13.30
2007,04,23,15,35,13.40
2007,04,23,15,36,13.50
2007,04,23,15,37,13.60
2007,04,23,15,38,13.70
2007,04,23,15,39,13.80
2007,04,23,15,40,13.80
2007,04,23,15,41,13.90
2007,04,23,15,42,13.90
2007,04,23,15,43,14.00
2007,04,23,15,44,14.10
2007,04,23,15,45,14.20
2007,04,23,15,46,14.20
2007,04,23,15,47,14.20
2007,04,23,15,48,14.30
2007,04,23,15,49,14.30
2007,04,23,15,50,14.30
2007,04,23,15,51,14.30
2007,04,23,15,52,14.30
2007,04,23,15,53,14.30
2007,04,23,15,54,14.30
2007,04,23,15,55,14.30
2007,04,23,15,56,14.30
2007,04,23,15,57,14.40
2007,04,23,15,58,14.40
2007,04,23,15,59,14.40
2007,04,23,16,00,14.50
2007,04,23,16,01,14.50
2007,04,23,16,02,14.60
2007,04,23,16,03,14.60
2007,04,23,16,04,14.70
2007,04,23,16,05,14.70
2007,04,23,16,06,14.60
2007,04,23,16,07,14.60
2007,04,23,16,08,14.60
2007,04,23,16,09,14.60
2007,04,23,16,10,14.60
2007,04,23,16,11,14.60
2007,04,23,16,12,14.60
2007,04,23,16,13,14.50
2007,04,23,16,14,14.50
2007,04,23,16,15,14.50
2007,04,23,16,16,14.50
2007,04,23,16,17,14.40
2007,04,23,16,18,14.40
2007,04,23,16,19,14.40
2007,04,23,16,20,14.40
2007,04,23,16,21,14.40
2007,04,23,16,22,14.30
2007,04,23,16,23,14.30
2007,04,23,16,24,14.30
2007,04,23,16,25,14.30
2007,04,23,16,26,14.30
2007,04,23,16,27,14.30
2007,04,23,16,28,14.30
2007,04,23,16,29,14.20
2007,04,23,16,30,14.30
2007,04,23,16,31,14.30
2007,04,23,16,32,14.20
2007,04,23,16,33,14.20
2007,04,23,16,34,14.20
2007,04,23,16,35,14.20
2007,04,23,16,36,14.20
2007,04,23,16,37,14.20
2007,04,23,16,38,14.20
2007,04,23,16,39,14.20
2007,04,23,16,40,14.20
2007,04,23,16,41,14.20
2007,04,23,16,42,14.10
2007,04,23,16,43,14.10
2007,04,23,16,44,14.10
2007,04,23,16,45,14.10
2007,04,23,16,46,14.10
2007,04,23,16,47,14.00
2007,04,23,16,48,14.00
2007,04,23,16,49,13.90
2007,04,23,16,50,13.90
2007,04,23,16,51,13.90
2007,04,23,16,52,13.80
2007,04,23,16,53,13.80
2007,04,23,16,54,13.80
2007,04,23,16,55,13.80
2007,04,23,16,56,13.70
2007,04,23,16,57,13.70
2007,04,23,16,58,13.70
2007,04,23,16,59,13.70
2007,04,23,17,00,13.70
2007,04,23,17,01,13.60
2007,04,23,17,02,13.60
2007,04,23,17,03,13.60
2007,04,23,17,04,13.50
2007,04,23,17,05,13.50
2007,04,23,17,06,13.50
2007,04,23,17,07,13.50
2007,04,23,17,08,13.60
2007,04,23,17,09,13.60
2007,04,23,17,10,13.60
2007,04,23,17,11,13.60
2007,04,23,17,12,13.60
2007,04,23,17,13,13.70
2007,04,23,17,14,13.70
2007,04,23,17,15,13.70
2007,04,23,17,16,13.80
2007,04,23,17,17,13.80
2007,04,23,17,18,13.80
2007,04,23,17,19,13.80
2007,04,23,17,20,13.80
2007,04,23,17,21,13.80
2007,04,23,17,22,13.80
2007,04,23,17,23,13.90
2007,04,23,17,24,13.90
2007,04,23,17,25,13.90
2007,04,23,17,26,13.90
2007,04,23,17,27,13.90
2007,04,23,17,28,13.90
2007,04,23,17,29,13.90
2007,04,23,17,30,13.90
2007,04,23,17,31,13.90
2007,04,23,17,32,13.90
2007,04,23,17,33,13.90
2007,04,23,17,34,14.00
2007,04,23,17,35,14.00
2007,04,23,17,36,14.00
2007,04,23,17,37,14.00
2007,04,23,17,38,14.00
2007,04,23,17,39,14.00
2007,04,23,17,40,14.10
2007,04,23,17,41,14.10
2007,04,23,17,42,14.10